パンスターズ彗星

C/2021 A9 ( PanSTARRS )

English version
Home page
Updated on November 26, 2022

---------------------------------------------------------------------

・ プロフィール

発見日 2021年1月12日
発見光度 21.4等
発見者 Pan-STARRS 1 telescope (Haleakala)

・ 写真集

・ 軌道要素

Epoch 2022 Aug. 9.0 TT = JDT 2459800.5
T 2023 Dec. 1.36467 TT                                  Rudenko
q   7.7603193            (2000.0)            P               Q
z  -0.0004156      Peri.  211.45152     -0.25848970     +0.92885799
 +/-0.0000042      Node   314.84325     +0.94567677     +0.29937985
e   1.0032255      Incl.  158.02348     +0.19717639     -0.21816173
>From 161 observations 2020 Dec. 12-2022 Oct. 26, mean residual 0".4.

・ 光度変化

        m1 = -2.5 + 5 logΔ + 18.0 log r

---------------------------------------------------------------------

軌道要素はM.P.E.C. 2022-U349に掲載されたものです。
光度グラフはComet for Windowsで作成したものです。

---------------------------------------------------------------------

Copyright(C) Seiichi Yoshida (comet@aerith.net). All rights reserved.